Torna al catalogo

MUNIN

AttivoScienzaPO
NORAD 26621·PAYLOAD·🇸🇪 Sweden

Lanciato Nov 21, 2000 da Vandenberg Space Force Base

Loading…

Prossimi Passaggi (prossime 24 ore)

TLE

AggiornatoSource: Space-Track

Epoca: Sep 14, 2026, 10:32 UTC

1 26621U 00075C   26257.43941013  .00000890  00000-0  81541-3 0  9995
2 26621  95.3957 137.0548 0711179  22.1522 340.8769 13.04830438228446

Traccia MUNIN in tempo reale con AllMySat

Download on the App Store